CW0811 Weather Reports


time (UTC)temp
F
wind
direction
speed
knots
gust
knots
rain 1hr
in
rain 24hr
in
rain mn
in
humidity
%
barometer
mb
20260507070042 50 117 0.0 1.7 0.00 0.20 0.01 93 1007.8
20260507064547 50 0 0.0 1.7 0.00 0.20 0.01 93 1007.7
20260507063040 50 0 0.0 0.9 0.00 0.20 0.01 93 1007.9
20260507061544 50 19 0.0 1.7 0.00 0.20 0.01 93 1007.2
20260507060044 50 23 0.0 1.7 0.01 0.20 0.01 93 1007.0
20260507054621 50 27 0.0 2.6 0.01 0.20 0.01 93 1007.4
20260507053043 51 29 0.0 0.9 0.01 0.20 0.01 93 1007.9
20260507051547 51 0 0.0 1.7 0.01 0.20 0.01 93 1007.7
20260507050054 51 0 0.0 0.9 0.00 0.19 0.00 93 1007.8
20260507044548 51 0 0.0 1.7 0.01 0.19 0.00 93 1008.2
20260507043044 51 0 0.0 3.5 0.01 0.19 0.00 93 1008.1
20260507041542 52 0 0.0 0.9 0.01 0.19 0.00 93 1007.7
20260507040044 52 87 0.0 1.7 0.01 0.19 0.00 93 1007.7
20260507034555 53 87 0.0 2.6 0.01 0.18 0.18 93 1007.8
20260507033046 53 0 0.0 1.7 0.01 0.18 0.18 93 1007.7
20260507031555 54 190 0.0 1.7 0.02 0.18 0.18 93 1007.5
20260507030052 54 0 0.0 1.7 0.02 0.18 0.18 93 1007.5
20260507024544 54 0 0.0 2.6 0.01 0.17 0.17 93 1007.5
20260507023051 54 292 0.0 2.6 0.01 0.17 0.17 93 1007.4
20260507021543 55 0 1.7 5.2 0.00 0.16 0.16 93 1007.1
20260507020044 58 269 1.7 3.5 0.00 0.16 0.16 92 1007.1
20260507014548 58 0 0.0 2.6 0.00 0.16 0.16 93 1006.6
20260507013044 58 202 0.0 1.7 0.00 0.16 0.16 93 1006.3
20260507011548 58 0 0.0 1.7 0.00 0.16 0.16 93 1006.6
20260507010045 58 218 0.0 1.7 0.00 0.16 0.16 93 1006.1
20260507004542 58 0 0.0 0.0 0.00 0.16 0.16 93 1006.2
20260507003043 58 170 0.0 3.5 0.00 0.16 0.16 93 1006.2
20260507001543 58 182 0.9 3.5 0.00 0.16 0.16 93 1006.1
20260507000047 58 180 0.9 4.3 0.00 0.16 0.16 93 1006.4
20260506234542 58 0 1.7 5.2 0.01 0.16 0.16 93 1006.2
20260506233046 58 172 1.7 6.1 0.01 0.16 0.16 93 1006.1
20260506231544 58 0 0.9 5.2 0.01 0.16 0.16 93 1006.1
20260506230043 58 182 1.7 6.1 0.01 0.16 0.16 93 1005.9
20260506224548 58 0 0.9 4.3 0.01 0.15 0.15 92 1005.8
20260506223042 58 186 0.9 4.3 0.01 0.15 0.15 93 1005.8
20260506221544 58 0 0.0 6.1 0.02 0.15 0.15 92 1005.7
20260506220046 58 219 0.9 4.3 0.03 0.15 0.15 92 1005.9
20260506214542 58 182 2.6 8.7 0.03 0.14 0.14 92 1005.7
20260506213042 59 191 0.9 5.2 0.05 0.14 0.14 92 1005.7
20260506211542 59 180 0.9 7.0 0.05 0.13 0.13 92 1005.8
20260506210045 59 0 0.9 5.2 0.05 0.12 0.12 92 1005.9
20260506204549 59 182 0.9 8.7 0.04 0.11 0.11 92 1005.9
20260506203042 59 0 0.9 5.2 0.02 0.09 0.09 92 1006.2
20260506201542 59 188 0.9 4.3 0.02 0.08 0.08 91 1006.4
20260506200041 59 0 0.9 4.3 0.01 0.07 0.07 91 1006.2
20260506194546 59 360 2.6 7.8 0.02 0.07 0.07 91 1006.4
20260506193044 59 360 0.0 5.2 0.02 0.07 0.07 91 1006.6
20260506191542 59 360 0.9 7.0 0.02 0.06 0.06 91 1006.8
20260506190041 59 360 1.7 10.4 0.04 0.06 0.06 91 1006.7
20260506184546 59 360 2.6 10.4 0.04 0.05 0.05 90 1006.9
20260506183045 59 360 2.6 7.8 0.04 0.05 0.05 90 1007.3
20260506181541 59 360 3.5 10.4 0.03 0.04 0.04 89 1007.4
20260506180050 59 360 2.6 7.8 0.02 0.02 0.02 89 1007.2
20260506174544 59 360 2.6 9.6 0.01 0.01 0.01 87 1007.4
20260506173051 60 360 2.6 9.6 0.01 0.01 0.01 86 1007.6
20260506171547 61 360 1.7 12.2 0.01 0.01 0.01 84 1008.2
20260506170056 62 360 1.7 8.7 0.00 0.00 0.00 82 1008.5
20260506164541 63 168 0.9 7.0 0.00 0.00 0.00 80 1008.6
20260506163101 64 219 2.6 11.3 0.00 0.00 0.00 77 1008.5
20260506161545 65 140 2.6 9.6 0.00 0.00 0.00 75 1008.2
20260506160045 66 278 4.3 8.7 0.00 0.00 0.00 71 1008.4
20260506154605 66 169 1.7 10.4 0.00 0.00 0.00 72 1008.7
20260506153050 67 177 2.6 10.4 0.00 0.00 0.00 71 1008.8
20260506151548 67 232 2.6 7.8 0.00 0.00 0.00 70 1008.6
20260506150045 66 182 0.9 9.6 0.00 0.00 0.00 71 1008.6
20260506144542 66 170 3.5 13.0 0.00 0.00 0.00 71 1008.6
20260506143056 66 0 1.7 7.8 0.00 0.00 0.00 72 1009.0
20260506141543 65 134 1.7 9.6 0.00 0.00 0.00 74 1008.8
20260506140041 64 181 2.6 8.7 0.00 0.00 0.00 76 1008.9
20260506134545 64 234 2.6 7.8 0.00 0.00 0.00 76 1008.8
20260506133043 64 209 1.7 9.6 0.00 0.00 0.00 77 1008.7
20260506131542 63 283 3.5 8.7 0.00 0.00 0.00 79 1009.0
20260506130040 62 104 2.6 7.8 0.00 0.00 0.00 80 1009.0
20260506124540 61 140 3.5 8.7 0.00 0.00 0.00 81 1009.2
20260506123048 61 219 0.9 9.6 0.00 0.00 0.00 82 1009.6
20260506121545 61 144 2.6 9.6 0.00 0.00 0.00 82 1009.4
20260506120052 60 214 2.6 7.8 0.00 0.00 0.00 82 1009.3
20260506114547 60 151 1.7 6.1 0.00 0.00 0.00 83 1009.4
20260506113040 59 265 3.5 8.7 0.00 0.00 0.00 84 1009.5
20260506111549 58 163 2.6 6.1 0.00 0.00 0.00 85 1009.3
20260506110058 58 199 0.9 5.2 0.00 0.00 0.00 86 1009.6
20260506104543 57 360 1.7 7.8 0.00 0.00 0.00 87 1009.4
20260506103048 57 234 2.6 6.1 0.00 0.00 0.00 87 1009.5
20260506101546 57 138 0.9 7.8 0.00 0.00 0.00 87 1009.4
20260506100048 57 191 0.9 6.1 0.00 0.00 0.00 87 1009.4
20260506094604 57 253 1.7 7.0 0.00 0.00 0.00 86 1009.2
20260506093053 57 205 2.6 9.6 0.00 0.00 0.00 86 1009.3
20260506091546 57 187 1.7 10.4 0.00 0.00 0.00 86 1009.2
20260506090046 57 214 0.0 7.8 0.00 0.00 0.00 85 1009.3
20260506084541 57 229 0.9 7.0 0.00 0.00 0.00 85 1009.4
20260506083041 57 175 1.7 6.1 0.00 0.00 0.00 84 1009.5
20260506081547 58 142 1.7 8.7 0.00 0.00 0.00 84 1009.4
20260506073045 58 180 0.9 7.0 0.00 0.00 0.00 82 1009.3
20260506071540 58 211 1.7 7.8 0.00 0.00 0.00 81 1009.4